�������l�o���
Date,Time,MP-1(��Sv/h),MP-2(��Sv/h),MP-3(��Sv/h),MP-4(��Sv/h),MP-5(��Sv/h),MP-6(��Sv/h),MP-7(��Sv/h),MP-8(��Sv/h),����,����(m/s),���J
2020/12/16,00:00,0.670,0.965,0.613,1.211,0.852,0.380,0.674,0.636,���쐼,3.1,��
2020/12/16,00:10,0.669,0.966,0.613,1.212,0.853,0.383,0.675,0.636,���쐼,2.3,��
2020/12/16,00:20,0.670,0.966,0.610,1.211,0.853,0.382,0.674,0.636,�k��,2.2,��
2020/12/16,00:30,0.668,0.964,0.614,1.212,0.854,0.382,0.675,0.637,�k,3.3,��
2020/12/16,00:40,0.671,0.966,0.610,1.213,0.851,0.382,0.675,0.634,�k,4.2,��
2020/12/16,00:50,0.669,0.964,0.613,1.212,0.851,0.382,0.674,0.637,�k�k��,3.7,��
2020/12/16,01:00,0.669,0.964,0.611,1.212,0.852,0.382,0.674,0.635,�k�k��,4.2,��
2020/12/16,01:10,0.671,0.962,0.611,1.212,0.852,0.380,0.675,0.636,�k�k��,4.2,��
2020/12/16,01:20,0.670,0.964,0.610,1.213,0.851,0.381,0.675,0.635,�k�k��,3.7,��
2020/12/16,01:30,0.668,0.965,0.613,1.213,0.853,0.381,0.676,0.635,�k�k��,5.1,��
2020/12/16,01:40,0.669,0.965,0.613,1.213,0.854,0.382,0.675,0.634,�k�k��,5.0,��
2020/12/16,01:50,0.670,0.963,0.610,1.213,0.851,0.381,0.676,0.634,�k,5.2,��
2020/12/16,02:00,0.670,0.964,0.612,1.212,0.852,0.381,0.675,0.634,�k,4.5,��
2020/12/16,02:10,0.670,0.964,0.612,1.212,0.852,0.381,0.674,0.636,�k�k��,3.6,��
2020/12/16,02:20,0.670,0.962,0.612,1.213,0.851,0.380,0.676,0.634,�k�k��,3.1,��
2020/12/16,02:30,0.667,0.964,0.612,1.213,0.853,0.381,0.674,0.635,�k�k��,4.4,��
2020/12/16,02:40,0.669,0.965,0.612,1.214,0.851,0.381,0.675,0.634,�k�k��,5.0,��
2020/12/16,02:50,0.669,0.964,0.610,1.212,0.853,0.380,0.675,0.635,�k�k��,5.1,��
2020/12/16,03:00,0.668,0.967,0.611,1.212,0.850,0.382,0.675,0.637,�k�k��,4.8,��
2020/12/16,03:10,0.669,0.964,0.613,1.213,0.853,0.382,0.675,0.636,�k�k��,5.8,��
2020/12/16,03:20,0.668,0.963,0.608,1.211,0.853,0.382,0.673,0.634,�k�k��,5.3,��
2020/12/16,03:30,0.670,0.961,0.611,1.210,0.852,0.382,0.674,0.633,�k�k��,3.6,��
2020/12/16,03:40,0.669,0.964,0.611,1.212,0.852,0.382,0.674,0.637,�k�k��,3.2,��
2020/12/16,03:50,0.670,0.964,0.612,1.213,0.852,0.381,0.674,0.635,�k�k��,3.2,��
2020/12/16,04:00,0.668,0.962,0.610,1.213,0.851,0.382,0.675,0.635,�k�k��,2.9,��
2020/12/16,04:10,0.669,0.963,0.611,1.211,0.852,0.381,0.675,0.635,�k�k��,3.3,��
2020/12/16,04:20,0.669,0.966,0.612,1.211,0.850,0.379,0.676,0.636,�k�k��,2.2,��
2020/12/16,04:30,0.671,0.964,0.611,1.209,0.851,0.381,0.675,0.634,���k��,1.4,��
2020/12/16,04:40,0.669,0.965,0.612,1.212,0.851,0.381,0.675,0.636,�쐼,0.9,��
2020/12/16,04:50,0.669,0.965,0.612,1.212,0.849,0.383,0.675,0.635,�쐼,1.2,��
2020/12/16,05:00,0.667,0.962,0.611,1.213,0.851,0.382,0.674,0.635,��쐼,2.5,��
2020/12/16,05:10,0.670,0.963,0.610,1.211,0.851,0.383,0.674,0.633,��쐼,2.3,��
2020/12/16,05:20,0.669,0.962,0.612,1.211,0.851,0.381,0.675,0.634,��쓌,1.2,��
2020/12/16,05:30,0.667,0.963,0.610,1.211,0.850,0.381,0.674,0.634,��쓌,1.4,��
2020/12/16,05:40,0.670,0.963,0.609,1.212,0.851,0.381,0.676,0.635,��쐼,1.2,��
2020/12/16,05:50,0.668,0.963,0.609,1.209,0.851,0.382,0.673,0.635,�쐼,2.5,��
2020/12/16,06:00,0.669,0.962,0.610,1.212,0.850,0.381,0.672,0.635,�쐼,2.6,��
2020/12/16,06:10,0.669,0.961,0.610,1.210,0.851,0.381,0.673,0.634,���쐼,2.8,��
2020/12/16,06:20,0.667,0.963,0.609,1.210,0.850,0.381,0.672,0.636,�쐼,2.2,��
2020/12/16,06:30,0.667,0.962,0.610,1.210,0.850,0.381,0.674,0.635,���쐼,1.1,��
2020/12/16,06:40,0.668,0.960,0.612,1.209,0.848,0.380,0.673,0.634,��,0.9,��
2020/12/16,06:50,0.670,0.960,0.611,1.208,0.852,0.381,0.674,0.634,��,1.4,��
2020/12/16,07:00,0.667,0.961,0.610,1.211,0.850,0.381,0.674,0.635,��,2.2,��
2020/12/16,07:10,0.669,0.963,0.612,1.213,0.850,0.380,0.675,0.635,��,2.0,��
2020/12/16,07:20,0.669,0.963,0.613,1.210,0.848,0.380,0.673,0.635,��,3.1,��
2020/12/16,07:30,0.667,0.961,0.610,1.211,0.852,0.382,0.673,0.635,��,3.0,��
2020/12/16,07:40,0.668,0.961,0.610,1.211,0.849,0.382,0.674,0.635,���쐼,3.0,��
2020/12/16,07:50,0.669,0.963,0.611,1.212,0.849,0.380,0.674,0.636,���쐼,2.0,��
2020/12/16,08:00,0.669,0.964,0.610,1.211,0.848,0.381,0.674,0.636,�쐼,1.7,��
2020/12/16,08:10,0.669,0.960,0.611,1.211,0.850,0.381,0.675,0.634,�쐼,1.2,��
2020/12/16,08:20,0.670,0.962,0.610,1.212,0.850,0.382,0.675,0.635,���쐼,0.9,��
2020/12/16,08:30,0.668,0.961,0.612,1.211,0.851,0.381,0.673,0.637,�k�k��,0.8,��
2020/12/16,08:40,0.668,0.959,0.609,1.211,0.849,0.381,0.674,0.636,��,0.6,��
2020/12/16,08:50,0.670,0.963,0.613,1.213,0.849,0.381,0.675,0.635,��,1.5,��
2020/12/16,09:00,0.670,0.961,0.610,1.211,0.850,0.382,0.675,0.635,�k,0.9,��
2020/12/16,09:10,0.670,0.962,0.612,1.208,0.850,0.381,0.677,0.636,�k,2.0,��
2020/12/16,09:20,0.671,0.962,0.611,1.209,0.849,0.381,0.675,0.635,�k�k��,1.2,��
2020/12/16,09:30,0.671,0.962,0.612,1.208,0.851,0.380,0.675,0.636,���쓌,0.9,��
2020/12/16,09:40,0.671,0.961,0.612,1.205,0.848,0.380,0.676,0.636,��,2.6,��
2020/12/16,09:50,0.670,0.962,0.612,1.204,0.850,0.383,0.676,0.636,��,4.9,��
2020/12/16,10:00,0.672,0.961,0.611,1.192,0.851,0.382,0.675,0.635,���k��,4.8,��
2020/12/16,10:10,0.670,0.962,0.610,1.204,0.849,0.384,0.675,0.635,��,4.7,��
2020/12/16,10:20,0.673,0.962,0.610,1.208,0.850,0.381,0.675,0.636,���k��,6.2,��
2020/12/16,10:30,0.670,0.962,0.612,1.207,0.850,0.383,0.674,0.636,��,7.6,��
2020/12/16,10:40,0.672,-,0.612,1.200,0.851,0.381,0.674,0.636,���쐼,5.5,��
2020/12/16,10:50,0.671,-,0.612,1.209,0.852,0.382,0.675,0.637,��,5.2,��
2020/12/16,11:00,0.672,-,0.611,1.213,0.848,0.379,0.675,0.637,���k��,5.1,��
2020/12/16,11:10,0.670,-,0.611,1.215,0.848,0.381,0.674,0.636,���k��,5.5,��
2020/12/16,11:20,0.671,-,0.609,1.214,0.853,0.380,0.676,0.638,��,5.3,��
2020/12/16,11:30,0.671,-,0.612,1.215,0.852,0.380,0.676,0.636,���k��,5.0,��
2020/12/16,11:40,0.672,-,0.613,1.214,0.853,0.381,0.678,0.637,��,5.1,��
2020/12/16,11:50,0.672,-,0.613,1.215,0.852,0.381,0.677,0.636,���k��,6.8,��
2020/12/16,12:00,0.673,-,0.614,1.215,0.852,0.381,0.679,0.636,���k��,4.7,��
2020/12/16,12:10,0.675,-,0.614,1.216,0.854,0.382,0.678,0.636,�k��,4.4,��
2020/12/16,12:20,0.673,-,0.614,1.214,0.854,0.381,0.678,0.637,�k��,4.1,��
2020/12/16,12:30,0.673,-,0.612,1.212,0.855,0.381,0.677,0.636,�k�k��,5.4,��
2020/12/16,12:40,0.673,-,0.613,1.216,0.856,0.382,0.677,0.636,�k,6.3,��
2020/12/16,12:50,0.671,-,0.614,1.217,0.853,0.380,0.677,0.636,�k�k��,6.8,��
2020/12/16,13:00,0.673,-,0.613,1.216,0.855,0.381,0.677,0.636,�k,5.2,��
2020/12/16,13:10,0.674,-,0.612,1.218,0.856,0.380,0.677,0.637,�k�k��,6.0,��
2020/12/16,13:20,0.671,-,0.612,1.218,0.855,0.381,0.677,0.636,�k�k��,5.6,��
2020/12/16,13:30,0.673,-,0.613,1.217,0.856,0.380,0.677,0.636,�k�k��,5.3,��
2020/12/16,13:40,0.666,-,0.614,1.215,0.856,0.381,0.677,0.637,�k,3.6,��
2020/12/16,13:50,0.667,-,0.613,1.216,0.857,0.381,0.677,0.638,�k�k��,6.4,��
2020/12/16,14:00,0.672,-,0.612,1.217,0.855,0.380,0.678,0.637,�k��,3.9,��
2020/12/16,14:10,0.672,-,0.613,1.218,0.856,0.379,0.679,0.636,�k�k��,2.9,��
2020/12/16,14:20,0.674,0.962,0.613,1.216,0.856,0.381,0.678,0.639,�k��,2.2,��
2020/12/16,14:30,0.673,0.964,0.613,1.216,0.855,0.381,0.676,0.638,���k��,3.8,��
2020/12/16,14:40,0.672,0.965,0.615,1.218,0.858,0.381,0.678,0.636,���k��,5.7,��
2020/12/16,14:50,0.672,0.966,0.613,1.217,0.856,0.380,0.676,0.637,��,5.8,��
2020/12/16,15:00,0.673,0.966,0.615,1.217,0.852,0.381,0.677,0.636,��,6.4,��
2020/12/16,15:10,0.674,0.964,0.613,1.215,0.856,0.381,0.678,0.637,���k��,5.0,��
2020/12/16,15:20,0.674,0.967,0.613,1.217,0.856,0.380,0.677,0.637,��,5.1,��
2020/12/16,15:30,0.673,0.967,0.615,1.218,0.855,0.380,0.677,0.637,��,4.2,��
2020/12/16,15:40,0.674,0.965,0.614,1.217,0.856,0.382,0.676,0.636,�k��,6.0,��
2020/12/16,15:50,0.672,0.964,0.613,1.216,0.857,0.380,0.676,0.637,�k�k��,7.5,��
2020/12/16,16:00,0.672,0.967,0.612,1.217,0.855,0.380,0.678,0.638,�k�k��,5.6,��
2020/12/16,16:10,0.670,0.966,0.613,1.218,0.856,0.381,0.676,0.636,�k,4.6,��
2020/12/16,16:20,0.672,0.963,0.612,1.218,0.854,0.382,0.679,0.637,�k,4.8,��
2020/12/16,16:30,0.669,0.965,0.613,1.214,0.854,0.381,0.676,0.637,�k,5.4,��
2020/12/16,16:40,0.670,0.966,0.612,1.217,0.854,0.381,0.677,0.638,�k�k��,4.7,��
2020/12/16,16:50,0.672,0.966,0.612,1.216,0.853,0.380,0.674,0.636,�k�k��,5.6,��
2020/12/16,17:00,0.672,0.966,0.613,1.218,0.856,0.379,0.675,0.635,�k�k��,5.5,��
2020/12/16,17:10,0.669,0.966,0.614,1.216,0.853,0.379,0.675,0.635,�k�k��,6.9,��
2020/12/16,17:20,0.669,0.967,0.612,1.217,0.855,0.379,0.676,0.637,�k�k��,5.9,��
2020/12/16,17:30,0.669,0.966,0.613,1.215,0.855,0.379,0.675,0.636,�k�k��,6.7,��
2020/12/16,17:40,0.670,0.967,0.612,1.218,0.855,0.379,0.675,0.637,�k�k��,6.3,��
2020/12/16,17:50,0.668,0.965,0.611,1.218,0.855,0.379,0.677,0.635,�k�k��,5.4,��
2020/12/16,18:00,0.668,0.965,0.611,1.216,0.854,0.379,0.675,0.635,�k�k��,4.9,��
2020/12/16,18:10,0.670,0.965,0.610,1.215,0.855,0.378,0.677,0.636,�k��,4.0,��
2020/12/16,18:20,0.670,0.966,0.612,1.216,0.854,0.379,0.674,0.636,�k��,4.6,��
2020/12/16,18:30,0.669,0.965,0.611,1.216,0.856,0.380,0.677,0.635,�k��,3.0,��
2020/12/16,18:40,0.669,0.966,0.610,1.212,0.854,0.380,0.676,0.635,�k��,3.5,��
2020/12/16,18:50,0.671,0.966,0.613,1.217,0.855,0.380,0.677,0.638,�k��,4.6,��
2020/12/16,19:00,0.669,0.965,0.613,1.216,0.854,0.380,0.678,0.638,�k�k��,4.7,��
2020/12/16,19:10,0.669,0.966,0.613,1.215,0.853,0.381,0.675,0.635,�k��,4.7,��
2020/12/16,19:20,0.669,0.965,0.612,1.215,0.852,0.381,0.676,0.637,���k��,4.1,��
2020/12/16,19:30,0.671,0.966,0.612,1.216,0.854,0.380,0.676,0.636,�k��,5.0,��
2020/12/16,19:40,0.671,0.966,0.612,1.214,0.854,0.380,0.675,0.636,�k��,4.8,��
2020/12/16,19:50,0.671,0.967,0.612,1.215,0.852,0.379,0.675,0.638,�k��,3.8,��
2020/12/16,20:00,0.671,0.966,0.613,1.215,0.853,0.382,0.676,0.635,�k�k��,5.5,��
2020/12/16,20:10,0.670,0.966,0.609,1.216,0.853,0.380,0.675,0.635,�k��,5.9,��
2020/12/16,20:20,0.671,0.967,0.611,1.216,0.855,0.381,0.676,0.636,���k��,6.0,��
2020/12/16,20:30,0.668,0.964,0.611,1.216,0.855,0.380,0.674,0.635,��,6.3,��
2020/12/16,20:40,0.669,0.964,0.613,1.215,0.853,0.378,0.677,0.634,��,6.0,��
2020/12/16,20:50,0.670,0.967,0.613,1.217,0.855,0.379,0.676,0.637,��,5.3,��
2020/12/16,21:00,0.669,0.965,0.613,1.215,0.854,0.380,0.675,0.635,���k��,5.2,��
2020/12/16,21:10,0.670,0.965,0.613,1.215,0.853,0.381,0.675,0.635,��,5.4,��
2020/12/16,21:20,0.671,0.964,0.613,1.214,0.852,0.379,0.675,0.635,��,5.7,��
2020/12/16,21:30,0.668,0.964,0.611,1.216,0.854,0.380,0.677,0.636,��,6.8,��
2020/12/16,21:40,0.669,0.967,0.611,1.215,0.852,0.379,0.675,0.636,��,7.3,��
2020/12/16,21:50,0.671,0.968,0.611,1.214,0.855,0.379,0.676,0.635,��,7.0,��
2020/12/16,22:00,0.668,0.968,0.612,1.215,0.855,0.379,0.677,0.635,���쐼,7.0,��
2020/12/16,22:10,0.670,0.965,0.611,1.215,0.854,0.381,0.676,0.634,��,8.1,��
2020/12/16,22:20,0.669,0.968,0.611,1.214,0.853,0.381,0.675,0.636,��,7.3,��
2020/12/16,22:30,0.668,0.966,0.612,1.216,0.850,0.379,0.676,0.637,��,6.9,��
2020/12/16,22:40,0.672,0.965,0.611,1.216,0.851,0.380,0.676,0.635,��,7.1,��
2020/12/16,22:50,0.671,0.965,0.611,1.216,0.851,0.380,0.676,0.636,��,5.8,��
2020/12/16,23:00,0.669,0.965,0.612,1.214,0.851,0.381,0.676,0.636,���k��,4.2,��
2020/12/16,23:10,0.671,0.964,0.610,1.216,0.853,0.381,0.676,0.636,�k��,4.8,��
2020/12/16,23:20,0.668,0.968,0.612,1.215,0.854,0.380,0.675,0.635,���k��,5.7,��
2020/12/16,23:30,0.667,0.966,0.611,1.213,0.853,0.380,0.675,0.636,���k��,5.4,��
2020/12/16,23:40,0.670,0.965,0.611,1.216,0.854,0.379,0.674,0.636,��,4.7,��
2020/12/16,23:50,0.670,0.966,0.612,1.216,0.852,0.380,0.678,0.637,��,5.5,��
